Location: Aldenham
(51.6667°N, 0.3500°W)
Time: 22:38:27
(UTC+00:00)

Cosmos 2278 Rocket - Visible Passes

Search period start: 15 February 2026 00:00
Search period end: 25 February 2026 00:00
Orbit: 839 x 846 km, 71.0° (Epoch: 15 February)

Date Brightness Start Highest point End Pass type
(mag) Time Alt. Az. Time Alt. Az. Time Alt. Az.
15 Feb 4.8 02:38:06 12° N 02:38:06 12° N 02:38:56 10° NNE visible
15 Feb 4.7 04:21:12 10° N 04:22:18 10° N 04:23:24 10° NNE visible
15 Feb 4.4 06:05:05 10° NNW 06:08:55 18° NNE 06:12:45 10° ENE visible
16 Feb 4.9 02:23:23 12° N 02:23:23 12° N 02:24:02 10° NNE visible
16 Feb 4.7 04:06:15 10° N 04:07:20 10° N 04:08:24 10° NNE visible
16 Feb 4.5 05:50:11 10° NNW 05:53:57 18° NNE 05:57:44 10° ENE visible
17 Feb 5.0 02:08:39 11° N 02:08:39 11° N 02:09:08 10° NNE visible
17 Feb 4.7 03:51:17 10° N 03:52:21 10° N 03:53:24 10° NNE visible
17 Feb 4.5 05:35:18 10° NNW 05:39:00 17° NNE 05:42:42 10° ENE visible
18 Feb 5.0 01:53:54 11° N 01:53:54 11° N 01:54:15 10° NNE visible
18 Feb 4.7 03:36:18 10° N 03:37:22 10° N 03:38:25 10° N visible
18 Feb 4.5 05:20:25 10° NNW 05:24:02 17° NNE 05:27:39 10° ENE visible
19 Feb 5.1 01:39:09 11° N 01:39:09 11° N 01:39:22 10° NNE visible
19 Feb 4.8 03:21:19 10° NNW 03:22:23 10° N 03:23:27 10° N visible
19 Feb 4.6 05:05:31 10° NNW 05:09:05 17° NNE 05:12:38 10° ENE visible
20 Feb 5.1 01:24:23 10° NNE 01:24:23 10° NNE 01:24:28 10° NNE visible
20 Feb 4.8 03:06:20 10° NNW 03:07:24 10° N 03:08:28 10° N visible
20 Feb 4.6 04:50:38 10° NNW 04:54:07 16° NNE 04:57:36 10° ENE visible
21 Feb 4.8 02:51:25 10° NNW 02:52:25 10° N 02:53:31 10° N visible
21 Feb 4.6 04:35:44 10° NNW 04:39:09 16° NNE 04:42:34 10° ENE visible
21 Feb 3.3 06:19:16 10° NNW 06:24:44 45° NE 06:30:11 10° ESE visible
22 Feb 4.9 02:36:37 10° N 02:37:27 11° N 02:38:33 10° N visible
22 Feb 4.7 04:20:51 10° N 04:24:11 16° NNE 04:27:31 10° ENE visible
22 Feb 3.3 06:04:22 10° NNW 06:09:49 44° NE 06:15:13 10° ESE visible
23 Feb 4.9 02:21:48 10° N 02:22:28 11° N 02:23:36 10° N visible
23 Feb 4.7 04:05:57 10° N 04:09:13 15° NNE 04:12:29 10° ENE visible
23 Feb 3.4 05:49:28 10° NNW 05:54:53 42° NE 06:00:16 10° ESE visible
24 Feb 4.9 02:06:58 10° N 02:07:29 11° N 02:08:40 10° N visible
24 Feb 4.8 03:51:03 10° N 03:54:15 15° NNE 03:57:26 10° ENE visible
24 Feb 3.5 05:34:34 10° NNW 05:39:57 41° NE 05:45:18 10° ESE visible
